[{"OBJECT_NAME":"HULIANWANG DIGUI-28","OBJECT_ID":"2025-086J","EPOCH":"2026-09-12T06:36:28.937088","MEAN_MOTION":13.24414162,"ECCENTRICITY":0.0001958,"INCLINATION":86.4949,"RA_OF_ASC_NODE":283.5682,"ARG_OF_PERICENTER":81.8957,"MEAN_ANOMALY":278.2399,"EPHEMERIS_TYPE":0,"CLASSIFICATION_TYPE":"U","NORAD_CAT_ID":63695,"ELEMENT_SET_NO":999,"REV_AT_EPOCH":6638,"BSTAR":0.00010288684,"MEAN_MOTION_DOT":5.9e-7,"MEAN_MOTION_DDOT":0},{"OBJECT_NAME":"HULIANWANG DIGUI-29","OBJECT_ID":"2025-086K","EPOCH":"2026-09-12T06:25:37.919136","MEAN_MOTION":13.24414508,"ECCENTRICITY":0.00020967,"INCLINATION":86.4977,"RA_OF_ASC_NODE":283.7024,"ARG_OF_PERICENTER":83.9269,"MEAN_ANOMALY":276.2104,"EPHEMERIS_TYPE":0,"CLASSIFICATION_TYPE":"U","NORAD_CAT_ID":63696,"ELEMENT_SET_NO":999,"REV_AT_EPOCH":6638,"BSTAR":0.00013391837,"MEAN_MOTION_DOT":7.2e-7,"MEAN_MOTION_DDOT":0},{"OBJECT_NAME":"KUIPER-00008","OBJECT_ID":"2025-088A","EPOCH":"2026-09-12T06:04:55.114752","MEAN_MOTION":14.79927987,"ECCENTRICITY":0.00004087,"INCLINATION":51.9033,"RA_OF_ASC_NODE":343.024,"ARG_OF_PERICENTER":95.4358,"MEAN_ANOMALY":264.6651,"EPHEMERIS_TYPE":0,"CLASSIFICATION_TYPE":"U","NORAD_CAT_ID":63724,"ELEMENT_SET_NO":999,"REV_AT_EPOCH":7567,"BSTAR":0.000001950676,"MEAN_MOTION_DOT":-0.00000206,"MEAN_MOTION_DDOT":0},{"OBJECT_NAME":"KUIPER-00009","OBJECT_ID":"2025-088B","EPOCH":"2026-09-12T07:29:56.764320","MEAN_MOTION":15.07984291,"ECCENTRICITY":0.00006169,"INCLINATION":51.9036,"RA_OF_ASC_NODE":351.7147,"ARG_OF_PERICENTER":118.1975,"MEAN_ANOMALY":241.9062,"EPHEMERIS_TYPE":0,"CLASSIFICATION_TYPE":"U","NORAD_CAT_ID":63725,"ELEMENT_SET_NO":999,"REV_AT_EPOCH":7555,"BSTAR":0.0003103388,"MEAN_MOTION_DOT":0.00004546,"MEAN_MOTION_DDOT":0},{"OBJECT_NAME":"KUIPER-00010","OBJECT_ID":"2025-088C","EPOCH":"2026-09-12T05:24:06.079968","MEAN_MOTION":14.79926697,"ECCENTRICITY":0.00004266,"INCLINATION":51.9038,"RA_OF_ASC_NODE":338.2589,"ARG_OF_PERICENTER":100.437,"MEAN_ANOMALY":259.6641,"EPHEMERIS_TYPE":0,"CLASSIFICATION_TYPE":"U","NORAD_CAT_ID":63726,"ELEMENT_SET_NO":999,"REV_AT_EPOCH":7535,"BSTAR":0.00014222533,"MEAN_MOTION_DOT":0.00000863,"MEAN_MOTION_DDOT":0},{"OBJECT_NAME":"KUIPER-00011","OBJECT_ID":"2025-088D","EPOCH":"2026-09-12T06:01:04.974528","MEAN_MOTION":14.7992621,"ECCENTRICITY":0.00003655,"INCLINATION":51.9027,"RA_OF_ASC_NODE":345.6881,"ARG_OF_PERICENTER":91.3531,"MEAN_ANOMALY":268.7473,"EPHEMERIS_TYPE":0,"CLASSIFICATION_TYPE":"U","NORAD_CAT_ID":63727,"ELEMENT_SET_NO":999,"REV_AT_EPOCH":7538,"BSTAR":0.000026213036,"MEAN_MOTION_DOT":-2.1e-7,"MEAN_MOTION_DDOT":0},{"OBJECT_NAME":"KUIPER-00012","OBJECT_ID":"2025-088E","EPOCH":"2026-09-12T05:35:44.626560","MEAN_MOTION":14.7992152,"ECCENTRICITY":0.00002868,"INCLINATION":51.9036,"RA_OF_ASC_NODE":330.7067,"ARG_OF_PERICENTER":53.3995,"MEAN_ANOMALY":306.6993,"EPHEMERIS_TYPE":0,"CLASSIFICATION_TYPE":"U","NORAD_CAT_ID":63728,"ELEMENT_SET_NO":999,"REV_AT_EPOCH":7554,"BSTAR":0.00012674022,"MEAN_MOTION_DOT":0.00000745,"MEAN_MOTION_DDOT":0},{"OBJECT_NAME":"KUIPER-00013","OBJECT_ID":"2025-088F","EPOCH":"2026-09-12T07:11:08.056320","MEAN_MOTION":14.79924572,"ECCENTRICITY":0.00005021,"INCLINATION":51.9034,"RA_OF_ASC_NODE":2.9315,"ARG_OF_PERICENTER":111.124,"MEAN_ANOMALY":248.9776,"EPHEMERIS_TYPE":0,"CLASSIFICATION_TYPE":"U","NORAD_CAT_ID":63729,"ELEMENT_SET_NO":999,"REV_AT_EPOCH":7520,"BSTAR":-0.000015091723,"MEAN_MOTION_DOT":-0.00000336,"MEAN_MOTION_DDOT":0},{"OBJECT_NAME":"KUIPER-00014","OBJECT_ID":"2025-088G","EPOCH":"2026-09-12T07:59:44.032992","MEAN_MOTION":14.79920535,"ECCENTRICITY":0.00003702,"INCLINATION":51.9033,"RA_OF_ASC_NODE":2.727,"ARG_OF_PERICENTER":95.2014,"MEAN_ANOMALY":264.8991,"EPHEMERIS_TYPE":0,"CLASSIFICATION_TYPE":"U","NORAD_CAT_ID":63730,"ELEMENT_SET_NO":999,"REV_AT_EPOCH":7502,"BSTAR":-0.000041717592,"MEAN_MOTION_DOT":-0.00000539,"MEAN_MOTION_DDOT":0},{"OBJECT_NAME":"KUIPER-00015","OBJECT_ID":"2025-088H","EPOCH":"2026-09-12T00:26:37.306176","MEAN_MOTION":14.79930053,"ECCENTRICITY":0.00003581,"INCLINATION":51.8998,"RA_OF_ASC_NODE":14.1642,"ARG_OF_PERICENTER":124.6249,"MEAN_ANOMALY":235.4747,"EPHEMERIS_TYPE":0,"CLASSIFICATION_TYPE":"U","NORAD_CAT_ID":63731,"ELEMENT_SET_NO":999,"REV_AT_EPOCH":7529,"BSTAR":0.000081124372,"MEAN_MOTION_DOT":0.00000397,"MEAN_MOTION_DDOT":0},{"OBJECT_NAME":"KUIPER-00016","OBJECT_ID":"2025-088J","EPOCH":"2026-09-12T07:55:51.616128","MEAN_MOTION":14.79926709,"ECCENTRICITY":0.00004119,"INCLINATION":51.902,"RA_OF_ASC_NODE":5.2446,"ARG_OF_PERICENTER":128.1977,"MEAN_ANOMALY":231.9022,"EPHEMERIS_TYPE":0,"CLASSIFICATION_TYPE":"U","NORAD_CAT_ID":63732,"ELEMENT_SET_NO":999,"REV_AT_EPOCH":7498,"BSTAR":0.000077187445,"MEAN_MOTION_DOT":0.00000367,"MEAN_MOTION_DDOT":0},{"OBJECT_NAME":"KUIPER-00018","OBJECT_ID":"2025-088K","EPOCH":"2026-09-12T07:22:46.621920","MEAN_MOTION":14.79922935,"ECCENTRICITY":0.0000293,"INCLINATION":51.9048,"RA_OF_ASC_NODE":355.3929,"ARG_OF_PERICENTER":87.8324,"MEAN_ANOMALY":272.2672,"EPHEMERIS_TYPE":0,"CLASSIFICATION_TYPE":"U","NORAD_CAT_ID":63733,"ELEMENT_SET_NO":999,"REV_AT_EPOCH":7512,"BSTAR":-0.000044677554,"MEAN_MOTION_DOT":-0.00000561,"MEAN_MOTION_DDOT":0},{"OBJECT_NAME":"KUIPER-00019","OBJECT_ID":"2025-088L","EPOCH":"2026-09-12T06:23:55.977504","MEAN_MOTION":14.79923024,"ECCENTRICITY":0.00002375,"INCLINATION":51.9009,"RA_OF_ASC_NODE":354.3185,"ARG_OF_PERICENTER":162.9331,"MEAN_ANOMALY":197.164,"EPHEMERIS_TYPE":0,"CLASSIFICATION_TYPE":"U","NORAD_CAT_ID":63734,"ELEMENT_SET_NO":999,"REV_AT_EPOCH":7513,"BSTAR":-0.000001655904,"MEAN_MOTION_DOT":-0.00000234,"MEAN_MOTION_DDOT":0},{"OBJECT_NAME":"KUIPER-00020","OBJECT_ID":"2025-088M","EPOCH":"2026-09-12T07:18:53.507808","MEAN_MOTION":14.79927117,"ECCENTRICITY":0.00003555,"INCLINATION":51.9049,"RA_OF_ASC_NODE":357.9,"ARG_OF_PERICENTER":78.2072,"MEAN_ANOMALY":281.893,"EPHEMERIS_TYPE":0,"CLASSIFICATION_TYPE":"U","NORAD_CAT_ID":63735,"ELEMENT_SET_NO":999,"REV_AT_EPOCH":7529,"BSTAR":0.00016584426,"MEAN_MOTION_DOT":0.00001043,"MEAN_MOTION_DDOT":0},{"OBJECT_NAME":"KUIPER-00021","OBJECT_ID":"2025-088N","EPOCH":"2026-09-12T00:01:17.156064","MEAN_MOTION":14.79924838,"ECCENTRICITY":0.00002682,"INCLINATION":51.9037,"RA_OF_ASC_NODE":359.1933,"ARG_OF_PERICENTER":115.4707,"MEAN_ANOMALY":244.6283,"EPHEMERIS_TYPE":0,"CLASSIFICATION_TYPE":"U","NORAD_CAT_ID":63736,"ELEMENT_SET_NO":999,"REV_AT_EPOCH":7508,"BSTAR":0.000050366515,"MEAN_MOTION_DOT":0.00000163,"MEAN_MOTION_DDOT":0},{"OBJECT_NAME":"KUIPER-00023","OBJECT_ID":"2025-088P","EPOCH":"2026-09-12T07:14:59.076096","MEAN_MOTION":14.79933951,"ECCENTRICITY":0.00004595,"INCLINATION":51.903,"RA_OF_ASC_NODE":0.3507,"ARG_OF_PERICENTER":95.6195,"MEAN_ANOMALY":264.4819,"EPHEMERIS_TYPE":0,"CLASSIFICATION_TYPE":"U","NORAD_CAT_ID":63737,"ELEMENT_SET_NO":999,"REV_AT_EPOCH":7539,"BSTAR":0.00034263667,"MEAN_MOTION_DOT":0.00002392,"MEAN_MOTION_DDOT":0},{"OBJECT_NAME":"KUIPER-00024","OBJECT_ID":"2025-088Q","EPOCH":"2026-09-11T23:28:13.352448","MEAN_MOTION":14.79925393,"ECCENTRICITY":0.0000338,"INCLINATION":51.9057,"RA_OF_ASC_NODE":349.3973,"ARG_OF_PERICENTER":97.2476,"MEAN_ANOMALY":262.8525,"EPHEMERIS_TYPE":0,"CLASSIFICATION_TYPE":"U","NORAD_CAT_ID":63738,"ELEMENT_SET_NO":999,"REV_AT_EPOCH":7564,"BSTAR":-0.000080608405,"MEAN_MOTION_DOT":-0.00000835,"MEAN_MOTION_DDOT":0},{"OBJECT_NAME":"KUIPER-00025","OBJECT_ID":"2025-088R","EPOCH":"2026-09-12T06:34:09.999840","MEAN_MOTION":14.79926595,"ECCENTRICITY":0.00005258,"INCLINATION":51.9054,"RA_OF_ASC_NODE":355.5703,"ARG_OF_PERICENTER":105.6701,"MEAN_ANOMALY":254.432,"EPHEMERIS_TYPE":0,"CLASSIFICATION_TYPE":"U","NORAD_CAT_ID":63739,"ELEMENT_SET_NO":999,"REV_AT_EPOCH":7544,"BSTAR":0.0002169591,"MEAN_MOTION_DOT":0.00001433,"MEAN_MOTION_DDOT":0},{"OBJECT_NAME":"KUIPER-00027","OBJECT_ID":"2025-088S","EPOCH":"2026-09-12T05:53:18.846528","MEAN_MOTION":14.79924451,"ECCENTRICITY":0.00005235,"INCLINATION":51.904,"RA_OF_ASC_NODE":350.6548,"ARG_OF_PERICENTER":107.718,"MEAN_ANOMALY":252.384,"EPHEMERIS_TYPE":0,"CLASSIFICATION_TYPE":"U","NORAD_CAT_ID":63740,"ELEMENT_SET_NO":999,"REV_AT_EPOCH":7524,"BSTAR":0.00018805449,"MEAN_MOTION_DOT":0.00001212,"MEAN_MOTION_DDOT":0},{"OBJECT_NAME":"KUIPER-00028","OBJECT_ID":"2025-088T","EPOCH":"2026-09-12T06:45:48.238848","MEAN_MOTION":14.79924613,"ECCENTRICITY":0.00001941,"INCLINATION":51.902,"RA_OF_ASC_NODE":347.9359,"ARG_OF_PERICENTER":98.8627,"MEAN_ANOMALY":261.2358,"EPHEMERIS_TYPE":0,"CLASSIFICATION_TYPE":"U","NORAD_CAT_ID":63741,"ELEMENT_SET_NO":999,"REV_AT_EPOCH":7569,"BSTAR":-0.000007824114,"MEAN_MOTION_DOT":-0.00000281,"MEAN_MOTION_DDOT":0},{"OBJECT_NAME":"KUIPER-00029","OBJECT_ID":"2025-088U","EPOCH":"2026-09-12T06:11:13.180416","MEAN_MOTION":14.79912206,"ECCENTRICITY":0.00001989,"INCLINATION":51.904,"RA_OF_ASC_NODE":346.7376,"ARG_OF_PERICENTER":178.317,"MEAN_ANOMALY":181.7793,"EPHEMERIS_TYPE":0,"CLASSIFICATION_TYPE":"U","NORAD_CAT_ID":63742,"ELEMENT_SET_NO":999,"REV_AT_EPOCH":7523,"BSTAR":-0.000014924349,"MEAN_MOTION_DOT":-0.00000335,"MEAN_MOTION_DDOT":0},{"OBJECT_NAME":"KUIPER-00030","OBJECT_ID":"2025-088V","EPOCH":"2026-09-12T07:07:14.629440","MEAN_MOTION":14.79929756,"ECCENTRICITY":0.00003491,"INCLINATION":51.9046,"RA_OF_ASC_NODE":5.3873,"ARG_OF_PERICENTER":93.5868,"MEAN_ANOMALY":266.5135,"EPHEMERIS_TYPE":0,"CLASSIFICATION_TYPE":"U","NORAD_CAT_ID":63743,"ELEMENT_SET_NO":999,"REV_AT_EPOCH":7526,"BSTAR":0.00013603278,"MEAN_MOTION_DOT":0.00000816,"MEAN_MOTION_DDOT":0},{"OBJECT_NAME":"KUIPER-00031","OBJECT_ID":"2025-088W","EPOCH":"2026-09-12T06:41:55.801248","MEAN_MOTION":14.7992565,"ECCENTRICITY":0.00002976,"INCLINATION":51.9039,"RA_OF_ASC_NODE":350.4892,"ARG_OF_PERICENTER":54.3527,"MEAN_ANOMALY":305.7464,"EPHEMERIS_TYPE":0,"CLASSIFICATION_TYPE":"U","NORAD_CAT_ID":63744,"ELEMENT_SET_NO":999,"REV_AT_EPOCH":7518,"BSTAR":0.00015538524,"MEAN_MOTION_DOT":0.00000964,"MEAN_MOTION_DDOT":0}]